Location: Erdweis
(48.5167°N, 15.3500°E)
Time: 14:24:39
(UTC+00:00)

USA 234 - Pass Details

Date: 23 January 2021
Orbit: 1100 x 1107 km, 123.0° (Epoch: 01 March)

Event Time Altitude Azimuth Distance (km) Brightness Sun altitude
Exits shadow 18:14:01 44° 55° (NE) 1,478 3.5 -24.7°
Maximum altitude 18:15:27 52° 17° (NNE) 1,350 3.5 -24.9°
Drops below altitude 10° 18:21:45 10° 304° (NW) 2,968 6.2 -26.0°
Sets 18:24:17 0° 300° (WNW) 3,928 7.1 -26.4°
